| time (UTC) | temp F | wind direction | speed MPH | gust MPH | rain 1hr in | rain 24hr in | rain mn in | humidity % | barometer mb |
| 20260508004119 | 49 | 349 | 0.0 | 0.0 | 0.00 | 0.00 | 0.00 | 61 | 1013.4 |
| 20260508003615 | 49 | 350 | 1.0 | 1.0 | 0.00 | 0.00 | 0.00 | 58 | 1013.3 |
| 20260508003114 | 49 | 349 | 0.0 | 0.0 | 0.00 | 0.00 | 0.00 | 62 | 1013.3 |
| 20260508002610 | 49 | 351 | 1.0 | 1.0 | 0.00 | 0.00 | 0.00 | 61 | 1013.3 |
| 20260508002108 | 50 | 353 | 0.0 | 0.0 | 0.00 | 0.00 | 0.00 | 57 | 1013.4 |
| 20260508001602 | 50 | 342 | 1.0 | 1.0 | 0.00 | 0.00 | 0.00 | 55 | 1013.0 |
| 20260508001059 | 51 | 343 | 3.0 | 3.0 | 0.00 | 0.00 | 0.00 | 53 | 1013.1 |
| 20260508000555 | 51 | 349 | 2.0 | 3.0 | 0.00 | 0.00 | 0.00 | 60 | 1013.1 |
| 20260508000052 | 51 | 349 | 1.0 | 1.0 | 0.00 | 0.00 | 0.00 | 58 | 1012.9 |
| 20260507235549 | 51 | 349 | 0.0 | 1.0 | 0.00 | 0.00 | 0.00 | 60 | 1012.7 |
| 20260507235046 | 51 | 355 | 0.0 | 1.0 | 0.00 | 0.00 | 0.00 | 63 | 1012.9 |
| 20260507234542 | 51 | 0 | 0.0 | 0.0 | 0.00 | 0.00 | 0.00 | 61 | 1012.6 |
| 20260507234039 | 51 | 359 | 0.0 | 1.0 | 0.00 | 0.00 | 0.00 | 60 | 1012.5 |
| 20260507233536 | 52 | 0 | 0.0 | 0.0 | 0.00 | 0.00 | 0.00 | 57 | 1012.5 |
| 20260507233035 | 52 | 5 | 1.0 | 2.0 | 0.00 | 0.00 | 0.00 | 62 | 1012.4 |
| 20260507232530 | 52 | 28 | 0.0 | 1.0 | 0.00 | 0.00 | 0.00 | 62 | 1012.7 |
| 20260507232027 | 52 | 355 | 0.0 | 0.0 | 0.00 | 0.00 | 0.00 | 59 | 1012.5 |
| 20260507231524 | 52 | 15 | 0.0 | 1.0 | 0.00 | 0.00 | 0.00 | 60 | 1012.6 |
| 20260507231022 | 52 | 23 | 3.0 | 5.0 | 0.00 | 0.00 | 0.00 | 58 | 1012.6 |
| 20260507230518 | 52 | 353 | 2.0 | 2.0 | 0.00 | 0.00 | 0.00 | 60 | 1012.6 |
| 20260507230015 | 53 | 52 | 3.0 | 3.0 | 0.00 | 0.00 | 0.00 | 59 | 1012.5 |
| 20260507225510 | 53 | 19 | 1.0 | 2.0 | 0.00 | 0.00 | 0.00 | 59 | 1012.5 |
| 20260507225007 | 53 | 9 | 2.0 | 2.0 | 0.00 | 0.00 | 0.00 | 56 | 1012.4 |
| 20260507224502 | 53 | 340 | 3.0 | 5.0 | 0.00 | 0.00 | 0.00 | 60 | 1012.7 |
| 20260507223958 | 53 | 3 | 2.0 | 2.0 | 0.00 | 0.00 | 0.00 | 58 | 1012.6 |
| 20260507223455 | 53 | 342 | 1.0 | 1.0 | 0.00 | 0.00 | 0.00 | 57 | 1012.4 |
| 20260507222952 | 53 | 344 | 1.0 | 2.0 | 0.00 | 0.00 | 0.00 | 57 | 1012.5 |
| 20260507222449 | 53 | 1 | 0.0 | 1.0 | 0.00 | 0.00 | 0.00 | 56 | 1012.3 |
| 20260507221945 | 54 | 348 | 1.0 | 2.0 | 0.00 | 0.00 | 0.00 | 58 | 1012.0 |
| 20260507221442 | 54 | 348 | 0.0 | 0.0 | 0.00 | 0.00 | 0.00 | 57 | 1012.2 |
| 20260507220938 | 54 | 359 | 3.0 | 3.0 | 0.00 | 0.00 | 0.00 | 56 | 1012.0 |
| 20260507220436 | 55 | 352 | 4.0 | 6.0 | 0.00 | 0.00 | 0.00 | 54 | 1012.0 |
| 20260507215933 | 54 | 350 | 1.0 | 1.0 | 0.00 | 0.00 | 0.00 | 54 | 1012.0 |
| 20260507215429 | 54 | 353 | 1.0 | 1.0 | 0.00 | 0.00 | 0.00 | 54 | 1011.8 |
| 20260507214926 | 55 | 353 | 2.0 | 2.0 | 0.00 | 0.00 | 0.00 | 53 | 1012.0 |
| 20260507214424 | 55 | 354 | 0.0 | 1.0 | 0.00 | 0.00 | 0.00 | 54 | 1011.9 |
| 20260507213919 | 55 | 354 | 1.0 | 1.0 | 0.00 | 0.00 | 0.00 | 49 | 1011.5 |
| 20260507213416 | 56 | 355 | 1.0 | 1.0 | 0.00 | 0.00 | 0.00 | 50 | 1011.4 |
| 20260507212913 | 56 | 357 | 0.0 | 1.0 | 0.00 | 0.00 | 0.00 | 52 | 1011.5 |
| 20260507212409 | 56 | 356 | 1.0 | 1.0 | 0.00 | 0.00 | 0.00 | 55 | 1011.7 |
| 20260507211906 | 55 | 357 | 1.0 | 1.0 | 0.00 | 0.00 | 0.00 | 56 | 1011.3 |
| 20260507211402 | 55 | 355 | 0.0 | 0.0 | 0.00 | 0.00 | 0.00 | 52 | 1011.5 |
| 20260507210859 | 56 | 355 | 0.0 | 1.0 | 0.00 | 0.00 | 0.00 | 50 | 1011.7 |
| 20260507210356 | 56 | 355 | 1.0 | 2.0 | 0.00 | 0.00 | 0.00 | 52 | 1011.6 |
| 20260507205853 | 56 | 356 | 0.0 | 0.0 | 0.00 | 0.00 | 0.00 | 51 | 1011.4 |
| 20260507205350 | 56 | 356 | 0.0 | 0.0 | 0.00 | 0.00 | 0.00 | 53 | 1011.4 |
| 20260507204846 | 56 | 357 | 0.0 | 0.0 | 0.00 | 0.00 | 0.00 | 51 | 1011.3 |
| 20260507204337 | 56 | 357 | 1.0 | 1.0 | 0.00 | 0.00 | 0.00 | 54 | 1011.5 |
| 20260507203835 | 56 | 357 | 1.0 | 1.0 | 0.00 | 0.00 | 0.00 | 53 | 1011.4 |
| 20260507203333 | 56 | 357 | 0.0 | 1.0 | 0.00 | 0.00 | 0.00 | 50 | 1011.5 |
| 20260507202829 | 56 | 357 | 2.0 | 2.0 | 0.00 | 0.00 | 0.00 | 52 | 1011.6 |
| 20260507202325 | 55 | 350 | 1.0 | 1.0 | 0.00 | 0.00 | 0.00 | 50 | 1011.3 |
| 20260507201821 | 55 | 349 | 2.0 | 2.0 | 0.00 | 0.00 | 0.00 | 54 | 1011.7 |
| 20260507201317 | 55 | 357 | 2.0 | 2.0 | 0.00 | 0.00 | 0.00 | 52 | 1011.5 |
| 20260507200814 | 55 | 350 | 2.0 | 2.0 | 0.00 | 0.00 | 0.00 | 50 | 1011.7 |
| 20260507200309 | 56 | 351 | 0.0 | 1.0 | 0.00 | 0.00 | 0.00 | 52 | 1011.5 |
| 20260507195805 | 57 | 351 | 0.0 | 1.0 | 0.00 | 0.00 | 0.00 | 49 | 1011.4 |
| 20260507195305 | 57 | 351 | 0.0 | 0.0 | 0.00 | 0.00 | 0.00 | 49 | 1011.5 |
| 20260507194800 | 57 | 351 | 0.0 | 0.0 | 0.00 | 0.00 | 0.00 | 50 | 1011.4 |
| 20260507194256 | 57 | 351 | 0.0 | 0.0 | 0.00 | 0.00 | 0.00 | 49 | 1011.5 |
| 20260507193753 | 58 | 351 | 3.0 | 3.0 | 0.00 | 0.00 | 0.00 | 49 | 1011.6 |
| 20260507193250 | 57 | 351 | 1.0 | 1.0 | 0.00 | 0.00 | 0.00 | 47 | 1011.6 |
| 20260507192746 | 57 | 351 | 2.0 | 2.0 | 0.00 | 0.00 | 0.00 | 47 | 1011.5 |
| 20260507192243 | 58 | 351 | 2.0 | 2.0 | 0.00 | 0.00 | 0.00 | 46 | 1011.6 |
| 20260507191739 | 58 | 351 | 0.0 | 1.0 | 0.00 | 0.00 | 0.00 | 47 | 1011.7 |
| 20260507191236 | 57 | 351 | 0.0 | 1.0 | 0.00 | 0.00 | 0.00 | 47 | 1011.6 |
| 20260507190732 | 57 | 351 | 1.0 | 2.0 | 0.00 | 0.00 | 0.00 | 49 | 1011.5 |
| 20260507190231 | 57 | 351 | 1.0 | 1.0 | 0.00 | 0.00 | 0.00 | 44 | 1011.7 |
| 20260507185729 | 57 | 351 | 1.0 | 1.0 | 0.00 | 0.00 | 0.00 | 48 | 1011.6 |
| 20260507185226 | 57 | 351 | 1.0 | 1.0 | 0.00 | 0.00 | 0.00 | 45 | 1011.6 |
| 20260507184723 | 57 | 351 | 3.0 | 3.0 | 0.00 | 0.00 | 0.00 | 43 | 1011.6 |
| 20260507184221 | 58 | 351 | 3.0 | 3.0 | 0.00 | 0.00 | 0.00 | 43 | 1011.7 |
| 20260507183717 | 58 | 353 | 0.0 | 0.0 | 0.00 | 0.00 | 0.00 | 50 | 1011.6 |
| 20260507183214 | 59 | 351 | 0.0 | 1.0 | 0.00 | 0.00 | 0.00 | 48 | 1011.6 |
| 20260507182712 | 58 | 351 | 1.0 | 2.0 | 0.00 | 0.00 | 0.00 | 43 | 1011.7 |
| 20260507182207 | 57 | 351 | 1.0 | 1.0 | 0.00 | 0.00 | 0.00 | 44 | 1011.7 |
| 20260507181704 | 58 | 352 | 1.0 | 2.0 | 0.00 | 0.00 | 0.00 | 45 | 1011.8 |
| 20260507181200 | 58 | 352 | 2.0 | 2.0 | 0.00 | 0.00 | 0.00 | 47 | 1011.7 |
| 20260507180656 | 57 | 351 | 2.0 | 2.0 | 0.00 | 0.00 | 0.00 | 48 | 1011.9 |
| 20260507180154 | 57 | 352 | 0.0 | 0.0 | 0.00 | 0.00 | 0.00 | 47 | 1011.9 |
| 20260507175649 | 57 | 352 | 1.0 | 1.0 | 0.00 | 0.00 | 0.00 | 45 | 1011.9 |
| 20260507175146 | 58 | 352 | 1.0 | 2.0 | 0.00 | 0.00 | 0.00 | 48 | 1011.8 |
| 20260507174643 | 59 | 351 | 0.0 | 0.0 | 0.00 | 0.00 | 0.00 | 46 | 1011.7 |
| 20260507174142 | 59 | 351 | 0.0 | 1.0 | 0.00 | 0.00 | 0.00 | 45 | 1011.8 |
| 20260507173639 | 58 | 351 | 1.0 | 2.0 | 0.00 | 0.00 | 0.00 | 45 | 1012.2 |
| 20260507173136 | 59 | 351 | 3.0 | 3.0 | 0.00 | 0.00 | 0.00 | 47 | 1011.8 |
| 20260507172632 | 59 | 352 | 1.0 | 2.0 | 0.00 | 0.00 | 0.00 | 50 | 1012.1 |
| 20260507172130 | 59 | 352 | 0.0 | 1.0 | 0.00 | 0.00 | 0.00 | 47 | 1012.2 |
| 20260507171629 | 57 | 352 | 1.0 | 2.0 | 0.00 | 0.00 | 0.00 | 49 | 1012.2 |
| 20260507171127 | 56 | 352 | 0.0 | 0.0 | 0.00 | 0.00 | 0.00 | 51 | 1012.3 |
| 20260507170624 | 56 | 352 | 1.0 | 2.0 | 0.00 | 0.00 | 0.00 | 50 | 1012.4 |
| 20260507170121 | 57 | 352 | 0.0 | 0.0 | 0.00 | 0.00 | 0.00 | 52 | 1012.4 |
| 20260507165616 | 57 | 352 | 0.0 | 0.0 | 0.00 | 0.00 | 0.00 | 53 | 1012.3 |
| 20260507165113 | 57 | 352 | 0.0 | 1.0 | 0.00 | 0.00 | 0.00 | 52 | 1012.0 |
| 20260507164609 | 58 | 352 | 1.0 | 2.0 | 0.00 | 0.00 | 0.00 | 48 | 1012.1 |
| 20260507164106 | 59 | 352 | 1.0 | 2.0 | 0.00 | 0.00 | 0.00 | 51 | 1012.1 |
| 20260507163603 | 60 | 352 | 0.0 | 1.0 | 0.00 | 0.00 | 0.00 | 49 | 1012.3 |
| 20260507163101 | 59 | 352 | 2.0 | 2.0 | 0.00 | 0.00 | 0.00 | 51 | 1012.4 |
| 20260507162556 | 58 | 352 | 0.0 | 0.0 | 0.00 | 0.00 | 0.00 | 50 | 1012.2 |
| 20260507162053 | 57 | 352 | 1.0 | 1.0 | 0.00 | 0.00 | 0.00 | 55 | 1012.4 |
| 20260507161549 | 55 | 352 | 1.0 | 2.0 | 0.00 | 0.00 | 0.00 | 54 | 1012.5 |
| 20260507161046 | 55 | 352 | 0.0 | 0.0 | 0.00 | 0.00 | 0.00 | 56 | 1012.5 |
| 20260507160542 | 55 | 352 | 0.0 | 0.0 | 0.00 | 0.00 | 0.00 | 56 | 1012.6 |
| 20260507160039 | 56 | 352 | 0.0 | 0.0 | 0.00 | 0.00 | 0.00 | 53 | 1012.7 |
| 20260507155534 | 56 | 352 | 1.0 | 1.0 | 0.00 | 0.00 | 0.00 | 54 | 1012.5 |
| 20260507155031 | 56 | 352 | 1.0 | 1.0 | 0.00 | 0.00 | 0.00 | 54 | 1012.4 |
| 20260507154528 | 55 | 353 | 1.0 | 2.0 | 0.00 | 0.00 | 0.00 | 57 | 1012.5 |
| 20260507154025 | 56 | 352 | 0.0 | 0.0 | 0.00 | 0.00 | 0.00 | 58 | 1012.6 |
| 20260507153522 | 56 | 352 | 0.0 | 0.0 | 0.00 | 0.00 | 0.00 | 53 | 1012.5 |
| 20260507153018 | 55 | 353 | 0.0 | 0.0 | 0.00 | 0.00 | 0.00 | 57 | 1012.5 |
| 20260507152514 | 55 | 353 | 3.0 | 3.0 | 0.00 | 0.00 | 0.00 | 56 | 1012.7 |
| 20260507152011 | 55 | 353 | 1.0 | 1.0 | 0.00 | 0.00 | 0.00 | 54 | 1012.7 |
| 20260507151507 | 56 | 353 | 1.0 | 2.0 | 0.00 | 0.00 | 0.00 | 57 | 1013.0 |
| 20260507151004 | 55 | 353 | 0.0 | 1.0 | 0.00 | 0.00 | 0.00 | 56 | 1013.0 |
| 20260507150501 | 56 | 353 | 0.0 | 0.0 | 0.00 | 0.00 | 0.00 | 54 | 1013.2 |
| 20260507145957 | 56 | 353 | 2.0 | 6.0 | 0.00 | 0.00 | 0.00 | 54 | 1012.9 |
| 20260507145453 | 55 | 353 | 0.0 | 0.0 | 0.00 | 0.00 | 0.00 | 56 | 1013.1 |
| 20260507144950 | 55 | 353 | 1.0 | 1.0 | 0.00 | 0.00 | 0.00 | 56 | 1013.1 |
| 20260507144447 | 56 | 353 | 1.0 | 3.0 | 0.00 | 0.00 | 0.00 | 53 | 1013.2 |
| 20260507143944 | 58 | 353 | 0.0 | 0.0 | 0.00 | 0.00 | 0.00 | 51 | 1013.2 |
| 20260507143442 | 58 | 353 | 0.0 | 0.0 | 0.00 | 0.00 | 0.00 | 50 | 1013.2 |
| 20260507142938 | 57 | 353 | 1.0 | 1.0 | 0.00 | 0.00 | 0.00 | 54 | 1013.2 |
| 20260507142434 | 58 | 353 | 2.0 | 2.0 | 0.00 | 0.00 | 0.00 | 52 | 1013.4 |
| 20260507141931 | 57 | 353 | 1.0 | 1.0 | 0.00 | 0.00 | 0.00 | 55 | 1013.3 |
| 20260507141427 | 56 | 353 | 0.0 | 0.0 | 0.00 | 0.00 | 0.00 | 60 | 1013.4 |
| 20260507140924 | 56 | 353 | 0.0 | 0.0 | 0.00 | 0.00 | 0.00 | 60 | 1013.6 |
| 20260507140420 | 55 | 351 | 0.0 | 0.0 | 0.00 | 0.00 | 0.00 | 64 | 1013.9 |
| 20260507135919 | 54 | 351 | 0.0 | 0.0 | 0.00 | 0.00 | 0.00 | 65 | 1013.7 |
| 20260507135414 | 53 | 350 | 0.0 | 0.0 | 0.00 | 0.00 | 0.00 | 67 | 1013.5 |
| 20260507134912 | 53 | 350 | 0.0 | 0.0 | 0.00 | 0.00 | 0.00 | 66 | 1013.6 |
| 20260507134408 | 53 | 351 | 0.0 | 1.0 | 0.00 | 0.00 | 0.00 | 65 | 1013.6 |
| 20260507133904 | 53 | 353 | 0.0 | 1.0 | 0.00 | 0.00 | 0.00 | 67 | 1013.9 |
| 20260507133400 | 53 | 350 | 0.0 | 0.0 | 0.00 | 0.00 | 0.00 | 71 | 1014.2 |
| 20260507132854 | 53 | 3 | 1.0 | 2.0 | 0.00 | 0.00 | 0.00 | 69 | 1013.9 |
| 20260507132349 | 52 | 348 | 1.0 | 1.0 | 0.00 | 0.00 | 0.00 | 71 | 1014.1 |
| 20260507131847 | 51 | 318 | 0.0 | 1.0 | 0.00 | 0.00 | 0.00 | 74 | 1014.0 |
| 20260507131343 | 50 | 288 | 1.0 | 1.0 | 0.00 | 0.00 | 0.00 | 73 | 1014.0 |
| 20260507130840 | 50 | 325 | 0.0 | 1.0 | 0.00 | 0.00 | 0.00 | 78 | 1014.0 |
| 20260507130337 | 48 | 325 | 1.0 | 1.0 | 0.00 | 0.00 | 0.00 | 79 | 1014.0 |
| 20260507125836 | 47 | 314 | 0.0 | 1.0 | 0.00 | 0.00 | 0.00 | 80 | 1013.9 |
| 20260507125333 | 46 | 304 | 0.0 | 0.0 | 0.00 | 0.00 | 0.00 | 82 | 1014.0 |
| 20260507124830 | 46 | 298 | 0.0 | 0.0 | 0.00 | 0.00 | 0.00 | 83 | 1013.8 |
| 20260507124326 | 45 | 316 | 0.0 | 0.0 | 0.00 | 0.00 | 0.00 | 85 | 1013.9 |
| 20260507123825 | 44 | 316 | 1.0 | 1.0 | 0.00 | 0.00 | 0.00 | 86 | 1013.6 |
| 20260507123322 | 44 | 316 | 0.0 | 0.0 | 0.00 | 0.00 | 0.00 | 87 | 1014.1 |
| 20260507122818 | 43 | 317 | 0.0 | 0.0 | 0.00 | 0.00 | 0.00 | 88 | 1013.8 |
| 20260507122314 | 43 | 342 | 0.0 | 0.0 | 0.00 | 0.00 | 0.00 | 90 | 1014.0 |
| 20260507121810 | 42 | 344 | 0.0 | 1.0 | 0.00 | 0.00 | 0.00 | 91 | 1013.9 |
| 20260507121306 | 42 | 308 | 0.0 | 0.0 | 0.00 | 0.00 | 0.00 | 93 | 1013.9 |
| 20260507120802 | 42 | 319 | 0.0 | 0.0 | 0.00 | 0.00 | 0.00 | 95 | 1014.2 |
| 20260507120259 | 42 | 320 | 0.0 | 0.0 | 0.00 | 0.00 | 0.00 | 96 | 1013.9 |
| 20260507115755 | 42 | 320 | 0.0 | 0.0 | 0.00 | 0.00 | 0.00 | 97 | 1014.0 |
| 20260507115251 | 41 | 320 | 0.0 | 0.0 | 0.00 | 0.00 | 0.00 | 98 | 1014.1 |
| 20260507114746 | 41 | 320 | 0.0 | 0.0 | 0.00 | 0.00 | 0.00 | 98 | 1014.1 |
| 20260507114244 | 41 | 320 | 0.0 | 0.0 | 0.00 | 0.00 | 0.00 | 98 | 1013.9 |
| 20260507113741 | 40 | 320 | 0.0 | 0.0 | 0.00 | 0.00 | 0.00 | 98 | 1014.1 |
| 20260507113238 | 40 | 320 | 0.0 | 0.0 | 0.00 | 0.00 | 0.00 | 98 | 1014.0 |
| 20260507112736 | 40 | 320 | 0.0 | 0.0 | 0.00 | 0.00 | 0.00 | 98 | 1014.0 |
| 20260507112233 | 40 | 320 | 0.0 | 0.0 | 0.00 | 0.00 | 0.00 | 98 | 1013.9 |
| 20260507111731 | 39 | 320 | 0.0 | 0.0 | 0.00 | 0.00 | 0.00 | 98 | 1014.0 |
| 20260507111227 | 39 | 320 | 0.0 | 0.0 | 0.00 | 0.00 | 0.00 | 98 | 1013.6 |
| 20260507110723 | 39 | 321 | 0.0 | 0.0 | 0.00 | 0.00 | 0.00 | 98 | 1013.6 |
| 20260507110220 | 39 | 320 | 0.0 | 0.0 | 0.00 | 0.00 | 0.00 | 98 | 1013.7 |
| 20260507105717 | 39 | 318 | 0.0 | 0.0 | 0.00 | 0.00 | 0.00 | 98 | 1013.7 |
| 20260507105213 | 38 | 316 | 0.0 | 0.0 | 0.00 | 0.00 | 0.00 | 98 | 1013.7 |
| 20260507104710 | 38 | 344 | 0.0 | 1.0 | 0.00 | 0.00 | 0.00 | 98 | 1013.7 |
| 20260507104206 | 38 | 343 | 0.0 | 0.0 | 0.00 | 0.00 | 0.00 | 98 | 1013.8 |
| 20260507103702 | 37 | 342 | 0.0 | 0.0 | 0.00 | 0.00 | 0.00 | 98 | 1013.6 |
| 20260507103159 | 37 | 342 | 0.0 | 0.0 | 0.00 | 0.00 | 0.00 | 98 | 1013.6 |
| 20260507102655 | 37 | 342 | 0.0 | 0.0 | 0.00 | 0.00 | 0.00 | 98 | 1013.7 |
| 20260507102152 | 37 | 343 | 0.0 | 0.0 | 0.00 | 0.00 | 0.00 | 98 | 1013.4 |
| 20260507101648 | 37 | 343 | 0.0 | 0.0 | 0.00 | 0.00 | 0.00 | 98 | 1013.5 |
| 20260507101143 | 37 | 343 | 0.0 | 0.0 | 0.00 | 0.00 | 0.00 | 98 | 1013.6 |
| 20260507100641 | 37 | 342 | 0.0 | 0.0 | 0.00 | 0.00 | 0.00 | 98 | 1013.4 |
| 20260507100140 | 38 | 343 | 0.0 | 0.0 | 0.00 | 0.00 | 0.00 | 98 | 1013.5 |
| 20260507095637 | 38 | 343 | 0.0 | 0.0 | 0.00 | 0.00 | 0.00 | 98 | 1013.4 |
| 20260507095133 | 37 | 343 | 0.0 | 0.0 | 0.00 | 0.00 | 0.00 | 97 | 1013.5 |
| 20260507094630 | 38 | 343 | 0.0 | 0.0 | 0.00 | 0.00 | 0.00 | 97 | 1013.4 |
| 20260507094127 | 37 | 343 | 0.0 | 0.0 | 0.00 | 0.00 | 0.00 | 97 | 1013.4 |
| 20260507093624 | 38 | 343 | 0.0 | 0.0 | 0.00 | 0.00 | 0.00 | 97 | 1013.5 |
| 20260507093123 | 38 | 343 | 0.0 | 0.0 | 0.00 | 0.00 | 0.00 | 97 | 1013.5 |
| 20260507092619 | 38 | 343 | 0.0 | 0.0 | 0.00 | 0.00 | 0.00 | 97 | 1013.4 |
| 20260507092115 | 38 | 343 | 0.0 | 0.0 | 0.00 | 0.00 | 0.00 | 97 | 1013.7 |
| 20260507091612 | 38 | 343 | 0.0 | 0.0 | 0.00 | 0.00 | 0.00 | 97 | 1013.5 |
| 20260507091108 | 38 | 343 | 0.0 | 0.0 | 0.00 | 0.00 | 0.00 | 97 | 1013.7 |
| 20260507090604 | 38 | 343 | 0.0 | 0.0 | 0.00 | 0.00 | 0.00 | 97 | 1013.7 |
| 20260507085558 | 38 | 343 | 0.0 | 0.0 | 0.00 | 0.00 | 0.00 | 97 | 1013.7 |
| 20260507085055 | 38 | 342 | 0.0 | 0.0 | 0.00 | 0.00 | 0.00 | 97 | 1013.6 |
| 20260507084552 | 39 | 343 | 0.0 | 0.0 | 0.00 | 0.00 | 0.00 | 97 | 1013.5 |
| 20260507084049 | 39 | 342 | 0.0 | 0.0 | 0.00 | 0.00 | 0.00 | 97 | 1013.5 |
| 20260507083545 | 39 | 343 | 0.0 | 0.0 | 0.00 | 0.00 | 0.00 | 96 | 1013.7 |
| 20260507083042 | 39 | 343 | 0.0 | 0.0 | 0.00 | 0.00 | 0.00 | 96 | 1013.5 |
| 20260507082538 | 39 | 343 | 0.0 | 0.0 | 0.00 | 0.00 | 0.00 | 96 | 1013.7 |
| 20260507082035 | 39 | 343 | 0.0 | 0.0 | 0.00 | 0.00 | 0.00 | 96 | 1013.8 |
| 20260507081531 | 39 | 343 | 0.0 | 0.0 | 0.00 | 0.00 | 0.00 | 95 | 1013.7 |
| 20260507081028 | 39 | 343 | 0.0 | 0.0 | 0.00 | 0.00 | 0.00 | 95 | 1013.8 |
| 20260507080523 | 39 | 343 | 0.0 | 0.0 | 0.00 | 0.00 | 0.00 | 95 | 1013.7 |
| 20260507080020 | 39 | 343 | 0.0 | 0.0 | 0.00 | 0.00 | 0.00 | 95 | 1014.0 |
| 20260507075516 | 39 | 343 | 0.0 | 0.0 | 0.00 | 0.00 | 0.00 | 95 | 1014.1 |
| 20260507075013 | 39 | 343 | 0.0 | 0.0 | 0.00 | 0.00 | 0.00 | 94 | 1014.2 |
| 20260507074509 | 38 | 343 | 0.0 | 0.0 | 0.00 | 0.00 | 0.00 | 94 | 1014.0 |
| 20260507074008 | 39 | 343 | 0.0 | 0.0 | 0.00 | 0.00 | 0.00 | 94 | 1014.2 |
| 20260507073503 | 39 | 343 | 0.0 | 0.0 | 0.00 | 0.00 | 0.00 | 94 | 1014.1 |
| 20260507073000 | 39 | 343 | 0.0 | 0.0 | 0.00 | 0.00 | 0.00 | 94 | 1014.0 |
| 20260507072458 | 39 | 343 | 0.0 | 0.0 | 0.00 | 0.00 | 0.00 | 94 | 1013.9 |
| 20260507071955 | 39 | 343 | 0.0 | 0.0 | 0.00 | 0.00 | 0.00 | 93 | 1013.9 |
| 20260507071452 | 40 | 343 | 0.0 | 0.0 | 0.00 | 0.00 | 0.00 | 93 | 1014.0 |
| 20260507070948 | 40 | 343 | 0.0 | 0.0 | 0.00 | 0.00 | 0.00 | 93 | 1014.1 |
| 20260507070446 | 40 | 343 | 0.0 | 0.0 | 0.00 | 0.00 | 0.00 | 93 | 1014.1 |
| 20260507065942 | 41 | 343 | 0.0 | 0.0 | 0.00 | 0.00 | 0.00 | 93 | 1014.0 |
| 20260507065439 | 41 | 348 | 0.0 | 0.0 | 0.00 | 0.00 | 0.00 | 93 | 1013.9 |
| 20260507064936 | 41 | 349 | 0.0 | 0.0 | 0.00 | 0.00 | 0.00 | 92 | 1013.8 |
| 20260507064435 | 40 | 349 | 0.0 | 0.0 | 0.00 | 0.00 | 0.00 | 91 | 1014.0 |
| 20260507063932 | 41 | 349 | 0.0 | 0.0 | 0.00 | 0.00 | 0.00 | 90 | 1014.3 |
| 20260507063429 | 41 | 349 | 0.0 | 0.0 | 0.00 | 0.00 | 0.00 | 90 | 1014.3 |
| 20260507062926 | 41 | 349 | 0.0 | 0.0 | 0.00 | 0.00 | 0.00 | 90 | 1014.3 |
| 20260507062423 | 41 | 349 | 0.0 | 0.0 | 0.00 | 0.00 | 0.00 | 89 | 1014.5 |
| 20260507061920 | 41 | 349 | 0.0 | 0.0 | 0.00 | 0.00 | 0.00 | 89 | 1014.4 |
| 20260507061418 | 41 | 349 | 0.0 | 0.0 | 0.00 | 0.00 | 0.00 | 88 | 1014.5 |
| 20260507060916 | 41 | 349 | 0.0 | 0.0 | 0.00 | 0.00 | 0.00 | 88 | 1014.5 |
| 20260507060407 | 41 | 349 | 0.0 | 0.0 | 0.00 | 0.00 | 0.00 | 88 | 1014.3 |
| 20260507055903 | 42 | 349 | 0.0 | 0.0 | 0.00 | 0.00 | 0.00 | 87 | 1014.4 |
| 20260507055358 | 42 | 349 | 0.0 | 0.0 | 0.00 | 0.00 | 0.00 | 86 | 1014.7 |
| 20260507054856 | 42 | 349 | 0.0 | 0.0 | 0.00 | 0.00 | 0.00 | 86 | 1014.8 |
| 20260507054352 | 42 | 349 | 0.0 | 0.0 | 0.00 | 0.00 | 0.00 | 85 | 1014.5 |
| 20260507053849 | 42 | 349 | 0.0 | 0.0 | 0.00 | 0.00 | 0.00 | 84 | 1014.6 |
| 20260507053347 | 42 | 349 | 0.0 | 0.0 | 0.00 | 0.00 | 0.00 | 83 | 1014.7 |
| 20260507052845 | 42 | 349 | 0.0 | 0.0 | 0.00 | 0.00 | 0.00 | 82 | 1014.5 |
| 20260507052342 | 42 | 349 | 0.0 | 0.0 | 0.00 | 0.00 | 0.00 | 81 | 1014.5 |
| 20260507051840 | 42 | 349 | 0.0 | 0.0 | 0.00 | 0.00 | 0.00 | 82 | 1014.3 |
| 20260507051337 | 43 | 349 | 0.0 | 0.0 | 0.00 | 0.00 | 0.00 | 83 | 1014.4 |
| 20260507050834 | 43 | 349 | 0.0 | 0.0 | 0.00 | 0.00 | 0.00 | 81 | 1014.4 |
| 20260507050330 | 43 | 349 | 0.0 | 0.0 | 0.00 | 0.00 | 0.00 | 80 | 1014.6 |
| 20260507045827 | 43 | 349 | 0.0 | 0.0 | 0.00 | 0.00 | 0.00 | 81 | 1014.7 |
| 20260507045324 | 44 | 349 | 0.0 | 0.0 | 0.00 | 0.00 | 0.00 | 82 | 1014.7 |
| 20260507044821 | 43 | 349 | 0.0 | 0.0 | 0.00 | 0.00 | 0.00 | 80 | 1014.8 |
| 20260507044318 | 43 | 349 | 0.0 | 0.0 | 0.00 | 0.00 | 0.00 | 80 | 1015.1 |
| 20260507043813 | 43 | 349 | 0.0 | 0.0 | 0.00 | 0.00 | 0.00 | 80 | 1014.9 |
| 20260507043310 | 43 | 349 | 0.0 | 0.0 | 0.00 | 0.00 | 0.00 | 78 | 1014.9 |
| 20260507042807 | 43 | 349 | 0.0 | 0.0 | 0.00 | 0.00 | 0.00 | 78 | 1015.0 |
| 20260507042306 | 43 | 349 | 0.0 | 0.0 | 0.00 | 0.00 | 0.00 | 79 | 1014.9 |
| 20260507041800 | 43 | 349 | 0.0 | 0.0 | 0.00 | 0.00 | 0.00 | 77 | 1015.0 |
| 20260507041256 | 43 | 349 | 0.0 | 0.0 | 0.00 | 0.00 | 0.00 | 79 | 1015.0 |
| 20260507040753 | 44 | 349 | 0.0 | 0.0 | 0.00 | 0.00 | 0.00 | 80 | 1015.3 |
| 20260507040249 | 44 | 349 | 0.0 | 0.0 | 0.00 | 0.00 | 0.00 | 78 | 1015.2 |
| 20260507035745 | 44 | 349 | 0.0 | 0.0 | 0.00 | 0.55 | 0.55 | 77 | 1015.2 |
| 20260507035240 | 44 | 349 | 0.0 | 0.0 | 0.00 | 0.55 | 0.55 | 76 | 1015.0 |
| 20260507034738 | 44 | 349 | 0.0 | 0.0 | 0.00 | 0.55 | 0.55 | 77 | 1015.0 |
| 20260507034235 | 44 | 349 | 0.0 | 0.0 | 0.00 | 0.55 | 0.55 | 79 | 1015.0 |
| 20260507033733 | 44 | 349 | 0.0 | 0.0 | 0.00 | 0.55 | 0.55 | 77 | 1015.1 |
| 20260507033231 | 44 | 349 | 0.0 | 0.0 | 0.00 | 0.55 | 0.55 | 76 | 1014.9 |
| 20260507032728 | 44 | 349 | 0.0 | 0.0 | 0.00 | 0.55 | 0.55 | 76 | 1014.9 |
| 20260507032224 | 44 | 349 | 0.0 | 0.0 | 0.00 | 0.55 | 0.55 | 75 | 1015.1 |
| 20260507031721 | 45 | 349 | 0.0 | 0.0 | 0.00 | 0.55 | 0.55 | 76 | 1015.1 |
| 20260507031217 | 45 | 349 | 0.0 | 0.0 | 0.00 | 0.55 | 0.55 | 77 | 1015.2 |
| 20260507030714 | 45 | 349 | 0.0 | 0.0 | 0.00 | 0.55 | 0.55 | 76 | 1015.2 |
| 20260507030212 | 45 | 349 | 0.0 | 0.0 | 0.00 | 0.55 | 0.55 | 76 | 1015.3 |
| 20260507025709 | 45 | 349 | 0.0 | 0.0 | 0.00 | 0.55 | 0.55 | 75 | 1015.0 |
| 20260507025206 | 45 | 349 | 0.0 | 0.0 | 0.00 | 0.55 | 0.55 | 74 | 1015.1 |
| 20260507024704 | 45 | 349 | 0.0 | 0.0 | 0.00 | 0.55 | 0.55 | 74 | 1015.0 |
| 20260507024200 | 45 | 349 | 0.0 | 0.0 | 0.00 | 0.55 | 0.55 | 74 | 1015.0 |
| 20260507023656 | 45 | 349 | 0.0 | 0.0 | 0.00 | 0.55 | 0.55 | 75 | 1015.0 |
| 20260507023154 | 46 | 349 | 0.0 | 0.0 | 0.00 | 0.55 | 0.55 | 74 | 1014.9 |
| 20260507022651 | 46 | 349 | 0.0 | 0.0 | 0.00 | 0.55 | 0.55 | 75 | 1014.9 |
| 20260507022146 | 46 | 349 | 0.0 | 0.0 | 0.00 | 0.55 | 0.55 | 73 | 1014.8 |
| 20260507021643 | 46 | 349 | 0.0 | 0.0 | 0.00 | 0.55 | 0.55 | 73 | 1014.7 |
| 20260507021138 | 46 | 305 | 0.0 | 0.0 | 0.00 | 0.55 | 0.55 | 74 | 1014.8 |
| 20260507020637 | 46 | 323 | 0.0 | 0.0 | 0.00 | 0.55 | 0.55 | 73 | 1014.5 |
| 20260507020132 | 46 | 330 | 0.0 | 0.0 | 0.00 | 0.55 | 0.55 | 72 | 1014.3 |
| 20260507015631 | 46 | 330 | 0.0 | 0.0 | 0.00 | 0.55 | 0.55 | 75 | 1014.5 |
| 20260507015128 | 46 | 330 | 0.0 | 0.0 | 0.00 | 0.55 | 0.55 | 73 | 1014.5 |
| 20260507014625 | 46 | 325 | 0.0 | 0.0 | 0.00 | 0.55 | 0.55 | 73 | 1014.4 |
| 20260507014121 | 46 | 316 | 0.0 | 0.0 | 0.00 | 0.55 | 0.55 | 76 | 1014.5 |
| 20260507013618 | 46 | 316 | 0.0 | 0.0 | 0.00 | 0.55 | 0.55 | 74 | 1014.4 |
| 20260507013114 | 46 | 316 | 0.0 | 0.0 | 0.00 | 0.55 | 0.55 | 73 | 1014.4 |
| 20260507012611 | 46 | 312 | 0.0 | 0.0 | 0.00 | 0.55 | 0.55 | 74 | 1014.3 |
| 20260507012101 | 46 | 313 | 0.0 | 0.0 | 0.00 | 0.55 | 0.55 | 75 | 1014.3 |
| 20260507011559 | 47 | 328 | 0.0 | 0.0 | 0.00 | 0.55 | 0.55 | 73 | 1014.6 |
| 20260507011055 | 47 | 326 | 0.0 | 0.0 | 0.00 | 0.55 | 0.55 | 73 | 1014.5 |
| 20260507010550 | 47 | 327 | 0.0 | 0.0 | 0.00 | 0.55 | 0.55 | 74 | 1014.5 |
| 20260507010047 | 47 | 327 | 0.0 | 0.0 | 0.00 | 0.55 | 0.55 | 73 | 1014.5 |
| 20260507005544 | 47 | 327 | 0.0 | 0.0 | 0.00 | 0.55 | 0.55 | 73 | 1014.2 |
| 20260507005040 | 47 | 327 | 0.0 | 0.0 | 0.00 | 0.55 | 0.55 | 73 | 1014.5 |
| 20260507004538 | 47 | 327 | 0.0 | 0.0 | 0.00 | 0.55 | 0.55 | 73 | 1014.3 |